Tracking 34408 objects as of 13-Jun-2026
HD Live streaming from Space Station
objects crossing your sky now

COSMOS 2592

Track COSMOS 2592 now!
10-day predictions


NORAD ID: 65268
Int'l Code: 2025-182B
Perigee: 287.0 km
Apogee: 295.9 km
Inclination: 96.6 °
Period: 90.2 minutes
Semi major axis: 6662 km
RCS: Unknown
Launch date: August 21, 2025
Source: Commonwealth of Independent States (former USSR) (CIS)
Launch site: PLESETSK MISSILE AND SPACE COMPLEX (PKMTR)
Your satellite tracking list
Your tracking list is empty




NASA's NSSDC Master Catalog

Two Line Element Set (TLE):
1 65268U 25182B   26164.48726834  .00079728  42754-5  19273-3 0  9991
2 65268  96.5895  95.6873 0006689 143.9593 216.2138 15.96426065 47101
Source of the keplerian elements: AFSPC